Tracking 25701 objects as of 3-Jul-2022
HD Live streaming from Space Station
objects crossing your sky now

COSMOS 970 DEB

Track COSMOS 970 DEB now!
10-day predictions


NORAD ID: 12942
Int'l Code: 1977-121AZ
Perigee: 1,050.4 km
Apogee: 1,205.0 km
Inclination: 65.8 °
Period: 107.7 minutes
Semi major axis: 7498 km
RCS: 0.0606 m2 (small)
Launch date: December 21, 1977
Source: Commonwealth of Independent States (former USSR) (CIS)
Launch site: TYURATAM MISSILE AND SPACE COMPLEX (TTMTR)

Note: This is SATELLITE DEBRIS
aabbcc
Your satellite tracking list
Your tracking list is empty




NASA's NSSDC Master Catalog

Two Line Element Set (TLE):
1 12942U 77121AZ  22184.55887500  .00000076  00000-0  27750-3 0  9998
2 12942  65.8302 265.8087 0103091 156.0572 315.3412 13.36968736   449
Source of the keplerian elements: AFSPC